Погода в Погиби

Погода в Погиби : погода сейчас, прогноз погоды и архив. Всё, что Вы хотите узнать о погоде в Погиби!

Хотите узнать прогноз погоды в Погиби? Тогда Вам сюда: Погода в Погиби

Поиск расширенной информации на нашем сайте:

Другие новости

Новости СМИ2

Главная страница сайта

Новости сайта

03.07.2017

Напоминаем, что на нашем специализированном сайте Метеоцентр.Азия вы можете получить высокодетализированные автоматические прогнозы погоды по пунктам России, СНГ и мира в авиационном формате (включающие направление и скорость ветра, видимость, явления погоды, количество и форму облачности, нижнюю и верхнюю границу облачности).


Погода в Погиби - сегодня

Время (UTC), дата Ветер
(°,м/с) 
Видим.   Явления Облачность Т
(°С)
Тd
(°С)
f(%) Тe
(°С)
Pmin
(гПа)
dP
(гПа)
Po
(мм)
O2
(г/м3)
Тmin Tmax R s Состояние
почвы
00 06.06.18 360 (С) 4-4{06}  20000 м  {ливн. осадки}  10/10 600 м кучево-дожд. 
[Cb cap]
+6.2 +4.8 91 +5  1008.2  -0.7  756  297           
21 06.06.18 050 (СВ) 2-2{04}  20000 м    9/9 600 м кучево-дожд. 
[Cb cap]
+4.6 +2.8 88 +4  1014.8  1.3  760  301  +4.4        влажная 
15 07.06.18 020 (С) 2-2{04}  20000 м    ясно 
+8.4 +3.5 71 +8  1015.1  0.1  761  297           
21 07.06.18 050 (СВ) 2-2{04}  20000 м    6/0 средняя, верхняя 
[Ac trans|Ci sp]
+8.2 +3.8 74 +8  1014.6  -0.4  760  297  +6.6        сухая 
15 08.06.18 180 (Ю) 2-2{04}  20000 м    ясно 
+4 +2 87 +4  1010.7  -0.1  757  300           
18 08.06.18 180 (Ю) 2-2{02}  20000 м    ясно 
+3 +0.6 84 +2  1010.4  -0.3  757  302           
21 08.06.18 180 (Ю) 2-2{02}  20000 м    4/0 верхняя 
[Ci sp]
+7 +4.5 84 +7  1009.1  -1.3  756  296  +3        влажная 
21 09.06.18 180 (Ю) 10-12{14}  20000 м  {ливн. осадки}  9/5 600 м кучево-дожд., средняя 
[Cb cap|Ac trans]
+8.2 +5.5 83 +5  1002.2  -0.5  751  293  +8    0.7    влажная 
00 10.06.18 180 (Ю) 10-12{14}  20000 м  {ливн. осадки}  9/6 600 м кучево-дожд., средняя 
[Cb cap|Ac trans]
+9.4 +8.2 92 +7  1001.4  -0.8  750  291           
21 10.06.18 020 (С) 2-2{04}  20000 м    9/8 600 м кучево-дожд., средняя, верхняя 
[Cb cap|Ac trans|Ci sp]
+7.4 +6.3 93 +7  1008.1  1.1  755  295  +7      влажная 
21 11.06.18 090 (В) 2-2{02}  20000 м    5/0 средняя, верхняя 
[Ac trans|Ci sp]
+6.6 +3.3 79 +6  1010.7  0.4  757  297  +3.8        сухая 
21 12.06.18 090 (В) 2-2{02}  20000 м    10/10 600 м кучево-дожд. 
[Cb cap]
+5.8 +3.4 85 +6  1011.7  0.7  758  299  +3.5        влажная 
21 13.06.18 050 (СВ) 2-2{02}  20000 м    4/0 верхняя 
[Ci sp]
+7.2 +5.9 91 +7  1015.4  1.3  761  298  +2.8        влажная 
15 14.06.18 140 (ЮВ) 4-4{06}  20000 м    3/0 средняя 
[Ac trans]
+3.1 +1 86 +1  1015.8  0.8  761  303           
21 14.06.18 140 (ЮВ) 4-4{06}  20000 м    3/0 верхняя 
[Ci sp]
+6.2 +3.1 81 +5  1016.5  762  300  +2.4        влажная 
21 15.06.18 180 (Ю) 8-10{10}  20000 м    9/9 600 м кучево-дожд. 
[Cb cap]
+9.2 +7.3 88 +7  1012.6  0.5  759  295  +8.6        сухая 
21 16.06.18 180 (Ю) 10-10{12}  20000 м    10/10 600 м кучево-дожд. 
[Cb cap]
+8.6 +5.5 81 +6  1007.3  -0.5  755  294  +7.2        сухая 
21 17.06.18 180 (Ю) 8-10{12}  4000 м  слаб. ливневой дождь  10/10 600 м кучево-дожд. 
[Cb cap]
+8.8 +8 95 +6  1004.3  0.1  753  292  +8.2      влажная 
00 18.06.18 180 (Ю) 8-10{12}  20000 м  {ливн. осадки}  10/10 600 м кучево-дожд. 
[Cb cap]
+10.2 +9 92 +8  1003.4  -0.9  752  290           
21 18.06.18 160 (Ю) 6-8{12}  10 км  слаб. ливневой дождь  10/10 600 м кучево-дожд. 
[Cb cap]
+10 +9.4 96 +8  1003.5  -0.6  752  291  +8.5      влажная 
00 19.06.18 160 (Ю) 6-8{10}  10 км  слаб. ливневой дождь  10/10 600 м кучево-дожд. 
[Cb cap]
+11.2 +10.8 97 +12  1002.5  -1  751  289           
21 19.06.18 180 (Ю) 6-8{08}  4000 м  дымка  10/10 300 м 
[St]
+10.4 +10 97 +10  1000.1  0.2  749  289  +9.6    0.8    влажная 
00 20.06.18 180 (Ю) 6-6{08}  4000 м  дымка  10/10 300 м 
[St]
+10.6 +10.2 97 +10  998.9  -1.2  749  288           
21 20.06.18 180 (Ю) 2-2{04}  10 км  слаб. ливневой дождь  10/10 600 м кучево-дожд. 
[Cb cap]
+12.4 +12 97 +17  998.5  -0.6  748  286  +10.6      мокрая 
00 21.06.18 360 (С) 2-2{04}  10 км  слаб. ливневой дождь  10/10 600 м кучево-дожд. 
[Cb cap]
+14 +13.6 97 +21  997.5  -1  748  284           
Время (UTC), дата Ветер
(°,м/с) 
Видим.   Явления Облачность Т
(°С)
Тd
(°С)
f(%) Тe
(°С)
Pmin
(гПа)
dP
(гПа)
Po
(мм)
O2
(г/м3)
Тmin Tmax R s Состояние
почвы

Для получения пояснительной информации подведите курсор к названию столбца.

ПОГОДА в Погиби - архив

Всё, что Вы хотите узнать о погоде в Погиби - удобно и подробно!

Выберите нужную дату (начиная с 1 января 2015* года) и нажмите кнопку "Найти".
Будут отображены архивные сводки погоды по пункту Погиби, начиная с указанной даты.


Отображать данные в формате CSV (для использования в таблицах Excel)


Внимание! Наш архив погоды предназначен исключительно для личного некоммерческого использования в познавательных целях. Если Вам необходимы официальные справки о состоянии погоды (для производственных, юридических, коммерческих и т.п. целей), обращайтесь в органы Росгидромета.

*Примечание: данная дата относится к архиву по метеостанциям СССР (Россия, СНГ, Балтия).
Архив по метеостанциям Зарубежной Европы и Азии (кроме Китая) хранится 10 дней, по другим регионам земного шара (Китай, Африка, Америка, Австралия, Океания) - 1 день.

Погиби - район местоположения метеостанции


Название, широта, долгота, высота метеостанции:
Погиби 52.2°ш. 141.6°д. 6 м над ур. моря [Российская Федерация]

Дополнительная информация

В oтличие oт бoльшинства пoгoдных сайтoв мы публикуем пoдрoбную метеoинфoрмацию в детальнoм прoфессиoнальнoм фoрмате.

Характеристики температуры и влажнoсти вoздуха измеряются на высoте 2 м в тени вдали oт зданий и деревьев.
Скoрoсть ветра измеряется на высoте 10 м (на урoвне рoста челoвека скoрoсть ветра ниже в 1.5-2 раза). Если метеoстанция нахoдится в гoрoде или в лесу, тo скoрoсть ветра занижена на 2-4 м/с пo сравнению с oткрытым местoм. Скoрoсть ветра над акватoриями крупных рек и oзёр, а также на вершинах хoлмoв на 2-5 м/с выше, чем в oбычных услoвиях.
Атмoсфернoе давление в разных тoчках местнoсти мoжет значительнo oтличаться oт давления на метеoстанции, в зависимoсти oт услoвий рельефа (при пoдъёме на 10 м давление пoнижается примернo на 1 мм рт.ст.).